Regional Weather Roundup
Issued by NWS Mt. Holly, NJ

Home | Current Version | Previous Version | Text Only | Print | Product List | Glossary On
Versions: 1 2 3 4 5 6 7 8 9 10 11 12 13 14 15 16 17 18 19 20 21 22 23 24 25 26 27 28 29 30 31 32 33 34 35 36 37 38 39 40 41 42 43 44 45 46 47 48 49 50
000
ASUS41 KPHI 271811
RWRPHI

REGIONAL WEATHER ROUNDUP
NATIONAL WEATHER SERVICE MOUNT HOLLY NJ
200 PM EDT WED MAY 27 2015

NOTE:  "FAIR" INDICATES FEW OR NO CLOUDS BELOW 12,000 FEET WITH NO
SIGNIFICANT WEATHER AND/OR OBSTRUCTIONS TO VISIBILITY.

 * = STATION DOES NOT REPORT PRECIPITATION (E.G. RAIN, SNOW, ETC.)
        OR FOG.

NJZ015>026-271900-
SOUTHERN NEW JERSEY

CITY           SKY/WX    TMP DP  RH WIND       PRES   REMARKS
POMONA         SUNNY     78  65  63 S10G20    30.18S
6HR MIN TEMP:  72; 6HR MAX TEMP:  81;

RIO GRANDE*    SUNNY     79  63  57 S21       30.19F
MILLVILLE      SUNNY     82  69  64 S8        30.16F
WRIGHTSTOWN    PTSUNNY   89  69  51 SW15G23   30.10F HX  93
MOUNT HOLLY    PTSUNNY   86  70  58 VRB6      30.12F HX  90
TRENTON        PTSUNNY   87  68  52 SW13      30.11F HX  90
6HR MIN TEMP:  70; 6HR MAX TEMP:  88;


$$
NJZ001>014-271900-
NORTHERN NEW JERSEY

CITY           SKY/WX    TMP DP  RH WIND       PRES   REMARKS
SUSSEX         PTSUNNY   84  68  58 SW10G17   30.12F
ANDOVER*         N/A     82  67  60 S8        30.12F
MORRISTOWN     PTSUNNY   84  70  61 SW9G16    30.12F
NEWARK         PTSUNNY   82  67  60 E9        30.13F
TETERBORO      SUNNY     84  68  58 S7G20     30.11F
CALDWELL       PTSUNNY   83  68  60 S5        30.12F
SOMERVILLE     PTSUNNY   84  69  60 S8        30.10F
ALLAIRE*       MOSUNNY   81  66  61 SE12      30.15F
TOMS RIVER*    SUNNY    N/A N/A N/A S17G23    30.14F

$$
PAZ043-044-047-054-055-060>062-066>071-271900-
EASTERN PENNSYLVANIA

CITY           SKY/WX    TMP DP  RH WIND       PRES   REMARKS
PHILADELPHIA   PTSUNNY   87  68  52 SW16      30.13F HX  90
6HR MIN TEMP:  74; 6HR MAX TEMP:  87;

NORTH PHILA    PTSUNNY   88  66  48 SW14G23   30.13F HX  90
BLUE BELL      PTSUNNY   84  70  61 SW12      30.13F
DOYLESTOWN     PTSUNNY   82  68  62 S10G18    30.12F
QUAKERTOWN*    PTSUNNY   84  68  58 SW9       30.14F
POTTSTOWN      CLOUDY    82  69  64 SW10      30.14F
LANCASTER      PTSUNNY   83  69  62 S14       30.11F
COATESVILLE    PTSUNNY   81  70  69 SE7       30.15F
READING        MOSUNNY   86  67  52 SE12      30.09F
6HR MIN TEMP:  75; 6HR MAX TEMP:  87;

ALLENTOWN      PTSUNNY   85  67  54 SW10G17   30.11F
6HR MIN TEMP:  74; 6HR MAX TEMP:  85;

MOUNT POCONO   MOSUNNY   79  63  57 S14G22    30.16F
6HR MIN TEMP:  69; 6HR MAX TEMP:  81;

HAZLETON       PTSUNNY   79  64  61 S5        30.17S
WILKES BARRE   MOSUNNY   86  65  49 S14G21    30.06F THUNDER

$$
DEZALL-MDZ008-012-015-019-020-271900-
DELAWARE AND EASTERN MARYLAND

CITY           SKY/WX    TMP DP  RH WIND       PRES   REMARKS
WILMINGTON     PTSUNNY   84  70  62 S14G21    30.14F
6HR MIN TEMP:  74; 6HR MAX TEMP:  85;

DOVER          MOSUNNY   86  72  63 S13G20    30.12F HX  92
GEORGETOWN     MOSUNNY   87  67  51 SW16      30.17F HX  90
6HR MIN TEMP:  74; 6HR MAX TEMP:  87;

EASTON         MOSUNNY   86  72  62 SW14      30.18F HX  92
ABERDEEN       PTSUNNY   82  70  65 SW14      30.12F
PATUXENT       PTSUNNY   86  68  54 S15G21    30.15F
OCEAN CITY     SUNNY     73  64  73 S13G25    30.21F
WALLOPS ISLAND SUNNY     76  68  76 S22G30    30.22F
SALISBURY      MOSUNNY   84  68  58 S13       30.18F

$$
PAZ001-021-NYZ056-072-MDZ011-DCZ001-271900-
OTHER NEARBY LOCATIONS

CITY           SKY/WX    TMP DP  RH WIND       PRES   REMARKS
HARRISBURG     TSTM      70  66  87 NW10G28   30.10F VSB 1
STATE COLLEGE  PTSUNNY   73  64  73 SW12      30.14F
WILLIAMSPORT   CLOUDY    78  65  63 W10G20    30.09F
BINGHAMTON     CLOUDY    75  65  70 SW7       30.10F
NEW YORK CITY  SUNNY     84  67  56 CALM      30.16F
BALTIMORE      PTSUNNY   86  68  54 SW8       30.12F
WASHINGTON DC  PTSUNNY   89  67  47 S15       30.13F HX  92

$$



USA.gov is the U.S. government's official web portal to all federal, state and local government web resources and services.